This demonstration page uses our WeatherBlox Daily Observations layout. Learn more.

Left ArrowRight Arrow

38.20091, -84.87328

Hourly Observations for July 12, 2020

Temp ( °F °C ) Dew Point ( °F °C ) Humidity (%) Winds ( mph kmh ) Pressure ( in mb ) Visibility ( mi km ) Precip ( " mm )
12:53 am 00:53 Mostly Clear 68 20 63 17.2 84 84 Calm 29.83 1010 10 16 0.00 0.00
1:53 am 01:53 Clear 68 20 62 16.7 81 81 VRB 3 6 29.85 1011 10 16 0.00 0.00
2:53 am 02:53 Clear 66 18.9 63 17.2 90 90 WNW 3 6 29.83 1010 10 16 0.00 0.00
3:53 am 03:53 Mostly Cloudy 67 19.4 63 17.2 87 87 WNW 9 15 29.87 1012 10 16 0.00 0.00
4:53 am 04:53 Mostly Cloudy 67 19.4 62 16.7 84 84 Calm 29.81 1010 10 16 0.00 0.00
5:53 am 05:53 Mostly Cloudy 67 19.4 62 16.7 84 84 SSE 6 9 29.80 1009 10 16 0.00 0.00
6:53 am 06:53 Mostly Sunny 66 18.9 62 16.7 87 87 SSW 8 13 29.83 1010 10 16 0.00 0.00
7:53 am 07:53 Partly Cloudy 68 20 63 17.2 84 84 SSW 5 7 29.82 1010 10 16 0.00 0.00
8:53 am 08:53 Sunny 73 22.8 63 17.2 71 71 Calm 29.83 1010 10 16 0.00 0.00
9:53 am 09:53 Mostly Sunny 76 24.4 64 17.8 67 67 Calm 29.84 1011 10 16 0.00 0.00
10:53 am 10:53 Sunny 78 25.6 65 18.3 64 64 VRB 5 7 29.83 1010 10 16 0.00 0.00
11:53 am 11:53 Partly Cloudy 80 26.7 65 18.3 60 60 W 5 7 29.83 1010 10 16 0.00 0.00
12:53 pm 12:53 Mostly Sunny 83 28.3 67 19.4 59 59 undefined N/A 29.83 1010 10 16 0.00 0.00
1:53 pm 13:53 Partly Cloudy 82 27.8 66 18.9 58 58 W 3 6 29.81 1010 10 16 0.00 0.00
2:53 pm 14:53 Mostly Cloudy 83 28.3 67 19.4 59 59 VRB 5 7 29.79 1009 10 16 0.00 0.00
3:53 pm 15:53 Mostly Cloudy 83 28.3 66 18.9 57 57 NNW 7 11 29.79 1009 10 16 0.00 0.00
4:53 pm 16:53 Cloudy 83 28.3 66 18.9 57 57 N 6 9 29.79 1009 10 16 0.00 0.00
5:53 pm 17:53 Mostly Cloudy 81 27.2 66 18.9 61 61 NNW 7 11 29.79 1009 10 16 0.00 0.00
6:53 pm 18:53 Sunny 84 28.9 66 18.9 55 55 VRB 5 7 29.78 1009 10 16 0.00 0.00
7:53 pm 19:53 Sunny 81 27.2 64 17.8 57 57 N 7 11 29.80 1009 10 16 0.00 0.00
8:53 pm 20:53 Mostly Sunny 78 25.6 64 17.8 62 62 N 8 13 29.81 1009 10 16 0.00 0.00
9:53 pm 21:53 Clear 74 23.3 64 17.8 71 71 Calm 29.83 1010 10 16 0.00 0.00
10:53 pm 22:53 Clear 72 22.2 64 17.8 76 76 Calm 29.85 1011 10 16 0.00 0.00
11:53 pm 23:53 Clear 67 19.4 63 17.2 87 87 Calm 29.86 1011 10 16 0.00 0.00

Powered by AerisWeather